Salina, KS

7:17 PM CDT on August 31, 2016 (GMT -0500)
Salina Municipal

Weather History for KSLN - February, 2012

Change the Weather History Date:

Monday, February 27, 2012

  Actual Average Record
Temperature  
Mean Temperature 37 °F 40 °F  
Max Temperature 50 °F 51 °F 78 °F (2016)
Min Temperature 23 °F 29 °F -1 °F (2002)
Degree Days  
Heating Degree Days 28 25  
Month to date heating degree days 757 799  
Since 1 July heating degree days 3551 3815  
Cooling Degree Days 0 0  
Month to date cooling degree days 0 0  
Year to date cooling degree days 0 0  
Moisture  
Dew Point 19 °F    
Average Humidity 56    
Maximum Humidity 81    
Minimum Humidity 31    
Precipitation  
Precipitation 0.00 in 0.05 in 1.95 in (1900)
Month to date precipitation 2.01 1.12  
Year to date precipitation 2.16 1.75  
Sea Level Pressure  
Sea Level Pressure 30.38 in    
Wind  
Wind Speed 10 mph (ENE)    
Max Wind Speed 16 mph    
Max Gust Speed 20 mph    
Visibility 10 miles    
Events      
T = Trace of Precipitation, MM = Missing Value Source: NWS Daily Summary

Daily Weather History Graph

Daily Weather History Graph

Search for Another Location

Airport or City:

Trip Planner

Search our weather history database for the weather conditions in past years. The results will help you decide how hot, cold, wet, or windy it might be!

Date:

Astronomy

Feb. 27, 2012 Rise Set
Actual Time 7:06 AM CST 6:20 PM CST
Civil Twilight 6:39 AM CST 6:47 PM CST
Nautical Twilight 6:08 AM CST 7:18 PM CST
Astronomical Twilight 5:38 AM CST 7:49 PM CST
Moon 9:40 AM CST (2/27) No Moon Set
Length of Visible Light 12h 07m
Length of Day
11h 14m
Waxing Crescent, 29% of the Moon is Illuminated
Feb 27
Waxing Crescent
Feb 29
First Quarter
Mar 8
Full
Mar 14
Last Quarter
Mar 22
New

Hourly Weather History & Observations

Time (CST) Temp. Windchill Dew Point Humidity Pressure Visibility Wind Dir Wind Speed Gust Speed Precip Events Conditions
12:53 AM 30.9 °F 24.3 °F 18.0 °F 59% 30.30 in 10.0 mi NW 6.9 mph - N/A   Clear
1:53 AM 30.0 °F 22.4 °F 19.0 °F 64% 30.35 in 10.0 mi NW 8.1 mph - N/A   Clear
2:53 AM 28.9 °F 20.4 °F 19.9 °F 69% 30.38 in 10.0 mi North 9.2 mph - N/A   Clear
3:53 AM 30.9 °F 20.7 °F 19.9 °F 64% 30.40 in 10.0 mi North 13.8 mph - N/A   Clear
4:53 AM 26.1 °F 19.4 °F 19.0 °F 75% 30.43 in 10.0 mi North 5.8 mph - N/A   Clear
5:53 AM 27.0 °F 19.5 °F 18.0 °F 69% 30.46 in 10.0 mi North 6.9 mph - N/A   Clear
6:53 AM 23.0 °F 14.7 °F 18.0 °F 81% 30.47 in 10.0 mi North 6.9 mph - N/A   Clear
7:53 AM 26.1 °F 16.2 °F 18.0 °F 71% 30.48 in 10.0 mi NNE 10.4 mph - N/A   Clear
8:53 AM 28.9 °F 19.8 °F 15.1 °F 56% 30.51 in 10.0 mi NE 10.4 mph - N/A   Clear
9:53 AM 32.0 °F 24.8 °F 16.0 °F 52% 30.51 in 10.0 mi NE 8.1 mph - N/A   Clear
10:53 AM 35.1 °F 27.9 °F 15.1 °F 44% 30.50 in 10.0 mi NE 9.2 mph - N/A   Clear
11:53 AM 39.0 °F 33.4 °F 17.1 °F 41% 30.49 in 10.0 mi East 8.1 mph - N/A   Clear
12:53 PM 44.1 °F 38.1 °F 19.0 °F 37% 30.45 in 10.0 mi East 11.5 mph - N/A   Clear
1:53 PM 46.0 °F 41.0 °F 18.0 °F 33% 30.42 in 10.0 mi East 10.4 mph 16.1 mph N/A   Scattered Clouds
2:53 PM 48.9 °F - 19.0 °F 31% 30.38 in 10.0 mi East 11.5 mph - N/A   Partly Cloudy
3:53 PM 48.9 °F - 19.0 °F 31% 30.36 in 10.0 mi East 11.5 mph - N/A   Overcast
4:53 PM 48.0 °F - 19.9 °F 33% 30.33 in 10.0 mi East 10.4 mph - N/A   Overcast
5:53 PM 48.0 °F - 19.9 °F 33% 30.31 in 10.0 mi SE 11.5 mph - N/A   Overcast
6:53 PM 45.0 °F 40.1 °F 21.0 °F 39% 30.32 in 10.0 mi SE 9.2 mph - N/A   Overcast
7:53 PM 44.1 °F 38.1 °F 19.9 °F 38% 30.31 in 10.0 mi SE 11.5 mph - N/A   Overcast
8:53 PM 43.0 °F 36.4 °F 21.0 °F 42% 30.28 in 10.0 mi ESE 12.7 mph - N/A   Overcast
9:53 PM 42.1 °F 35.7 °F 21.0 °F 43% 30.27 in 10.0 mi ESE 11.5 mph - N/A   Overcast
10:53 PM 41.0 °F 33.5 °F 21.9 °F 47% 30.25 in 10.0 mi SE 13.8 mph - N/A   Overcast
11:53 PM 39.9 °F 33.9 °F 21.9 °F 49% 30.23 in 10.0 mi SE 9.2 mph - N/A   Overcast